GFSMW_sfc_dewp_159.txt.gz
Dewpoint
61 63 63 60 62 62 65 63 66 66 68 70 67 67 67 67 66 68 68 70 70 71 69 72 71 68 69 70 69 72 70 70 68 67 64 64 64 66 67 68 69 69 70
61 61 61 60 60 63 65 67 65 67 68 67 68 67 67 69 69 70 70 69 69 72 70 71 71 71 70 69 68 71 70 71 69 63 65 62 63 66 68 69 72 65 70
59 57 62 64 64 63 64 67 68 67 69 68 68 68 68 68 68 68 67 69 70 71 71 70 71 69 72 71 70 71 71 68 69 68 65 62 61 65 67 66 68 68 69
61 61 60 64 65 66 65 68 68 69 68 70 69 67 66 66 69 64 68 70 71 71 71 71 70 69 71 72 71 71 71 72 70 69 69 67 65 61 59 65 66 67 67
56 58 64 65 64 64 66 68 69 68 67 70 70 68 69 68 68 70 70 72 72 70 71 72 69 70 71 72 71 72 72 71 71 69 68 67 69 69 66 62 65 68 68
59 60 65 67 65 66 64 67 70 69 69 70 71 70 68 68 68 67 68 69 71 71 70 70 70 71 72 71 72 72 71 71 70 71 71 68 66 66 64 62 63 64 64
57 60 63 64 64 66 65 67 69 70 70 71 71 70 70 68 66 63 67 68 71 71 70 72 71 72 72 72 72 71 71 72 71 71 71 71 69 69 67 66 66 65 66
61 61 61 61 62 68 67 67 68 68 69 70 71 71 71 70 69 68 70 70 71 70 72 73 73 73 73 72 73 72 72 70 72 70 72 71 71 70 67 67 67 65 65
59 62 64 64 65 67 68 68 68 68 69 70 71 71 72 70 69 70 68 70 69 70 72 71 71 72 71 71 72 72 71 72 71 71 71 71 71 71 71 69 68 67 63
61 63 63 64 65 67 68 67 70 69 69 71 71 71 71 72 70 70 71 71 71 71 70 67 66 67 72 72 72 72 71 71 71 71 71 71 71 70 69 70 69 69 67
60 62 62 63 64 65 66 69 69 69 70 69 70 71 71 71 71 71 69 69 71 68 65 62 63 67 70 70 72 71 71 71 70 72 70 71 71 72 71 71 70 69 70
59 62 62 62 62 65 63 65 65 65 67 67 67 71 71 71 71 71 72 69 70 69 68 66 65 68 71 71 72 70 71 71 70 70 71 70 71 70 71 69 70 70 71
57 61 63 66 65 65 67 66 68 65 65 68 67 69 71 70 71 71 70 72 72 68 67 69 68 71 71 71 71 71 71 72 71 71 71 70 70 70 70 71 70 70 71
59 59 62 64 66 67 67 67 67 67 68 67 68 67 69 70 69 70 71 72 72 72 72 72 71 71 71 72 72 71 72 72 72 72 72 71 70 70 70 71 70 71 69
62 61 61 62 64 67 68 68 67 67 66 68 67 66 67 68 70 71 70 70 72 71 71 71 73 72 72 72 72 72 72 71 72 72 72 72 71 69 70 71 70 70 70
57 64 65 65 64 64 67 69 69 67 68 68 65 63 67 68 69 68 68 72 72 73 72 71 71 72 71 69 69 71 72 73 72 72 72 70 69 67 66 66 66 67 67
53 54 62 66 66 66 66 67 68 69 69 69 68 68 67 67 67 66 64 71 71 71 72 72 73 72 72 66 66 68 71 71 71 72 71 72 72 68 66 64 64 64 63
56 57 61 66 66 66 67 67 66 66 66 67 68 69 69 70 66 64 69 71 71 71 72 72 72 72 73 66 65 66 70 71 70 71 71 71 71 70 66 65 63 59 58
59 61 63 64 66 66 68 67 66 67 68 67 67 68 69 68 69 70 70 70 70 70 71 71 72 72 73 65 63 65 68 69 69 70 70 71 70 65 66 65 60 58 55
58 60 61 64 65 64 65 64 64 66 66 67 68 69 69 69 69 69 69 69 70 70 71 71 71 68 71 63 62 64 69 70 69 66 63 64 65 61 62 64 62 60 57
59 59 59 61 63 64 64 63 63 63 66 68 69 67 66 66 67 66 67 68 68 69 70 70 69 68 67 66 59 61 68 69 68 66 63 61 59 59 59 62 64 62 60
55 56 59 61 63 62 63 62 62 66 68 68 67 65 65 66 66 64 64 64 65 66 67 67 67 66 66 61 61 61 61 64 69 67 64 61 57 57 58 61 57 57 60
53 56 59 62 63 64 63 63 63 64 65 66 66 64 64 64 64 64 63 63 63 64 66 66 64 63 62 63 58 60 60 61 65 64 61 55 53 53 55 56 57 59 61
53 53 57 60 63 65 63 63 62 64 65 65 65 65 62 59 57 58 60 60 60 61 60 60 59 59 59 59 60 60 61 59 60 59 58 59 60 58 58 59 60 61 61
54 56 54 58 63 64 63 63 64 62 63 64 65 64 61 56 53 49 49 55 52 53 59 59 59 57 56 55 53 54 59 61 58 60 61 61 60 60 60 60 60 60 59
57 59 57 59 62 62 64 64 63 62 61 62 63 63 62 58 57 55 53 48 46 46 45 47 54 53 49 46 46 47 49 51 53 59 59 58 58 58 58 58 58 58 58

GFSMW_sfc_dewp_162.txt.gz
Dewpoint
61 61 60 59 61 63 64 64 64 64 68 67 64 63 64 66 66 68 67 69 70 69 70 71 71 68 68 69 68 71 70 69 67 65 64 63 63 65 67 69 71 72 71
60 62 61 60 61 63 64 64 64 65 68 67 67 66 66 67 66 69 68 69 68 70 69 70 70 70 68 69 67 69 69 70 69 63 63 61 62 67 68 70 69 68 71
59 60 62 61 63 62 64 64 64 66 67 67 67 68 67 67 67 68 66 68 69 71 70 71 70 69 71 70 69 70 69 67 69 68 62 60 58 64 66 66 69 68 68
59 59 62 61 63 64 65 65 64 66 67 67 66 67 65 65 66 64 65 67 70 70 70 70 71 68 69 70 71 70 71 70 68 69 69 66 63 60 59 66 66 68 67
58 58 62 63 65 67 65 67 66 65 66 68 69 67 67 66 67 69 68 66 71 70 71 70 70 69 70 70 71 71 70 70 69 68 68 67 67 68 64 61 64 67 67
58 61 63 65 65 64 64 68 67 67 67 68 69 67 67 66 67 66 68 68 71 70 71 71 69 69 71 71 71 71 71 70 69 70 69 68 67 66 63 63 64 64 66
57 61 62 64 64 64 64 64 68 67 67 67 68 69 68 67 66 65 66 68 69 70 70 70 69 70 72 72 71 71 70 71 69 70 70 70 69 69 66 65 65 65 66
59 60 62 64 64 66 66 66 67 69 68 69 68 69 69 68 67 64 65 68 69 70 70 71 70 71 72 72 71 71 71 70 71 70 70 70 71 70 68 66 65 63 65
57 61 64 65 65 65 66 67 66 69 69 68 70 69 70 69 68 67 67 69 70 69 70 72 72 72 72 71 71 71 70 71 70 71 71 70 70 71 70 67 67 64 62
57 62 63 64 65 64 66 66 67 66 68 70 70 70 70 70 69 69 69 69 68 70 70 70 70 70 71 71 71 71 71 70 71 71 71 70 70 70 69 70 69 68 66
58 62 62 64 65 67 68 68 68 67 66 67 68 70 71 71 71 70 70 70 69 70 69 69 67 67 67 69 72 71 71 69 70 70 71 69 70 71 71 70 70 69 69
61 62 62 63 64 66 67 68 65 66 66 67 65 67 69 71 71 70 70 69 70 68 67 66 63 66 66 69 70 70 70 69 69 69 70 70 70 69 70 69 69 69 69
60 62 62 62 63 64 65 65 65 66 66 66 66 66 67 70 70 70 70 70 70 69 67 66 64 63 65 70 71 71 69 70 71 70 69 70 70 69 69 70 69 70 70
62 61 62 64 65 65 64 65 65 66 66 67 66 66 66 68 69 70 71 71 71 68 67 67 67 65 66 70 71 70 70 71 71 71 72 71 70 69 70 70 69 70 68
59 62 62 64 66 65 66 66 66 66 66 66 66 66 66 67 66 69 70 70 71 71 69 67 69 70 70 70 71 72 70 70 71 71 72 72 71 69 69 71 70 69 68
58 59 61 62 65 66 66 67 67 66 66 65 67 65 64 65 66 68 68 69 70 71 71 70 70 71 71 67 68 71 72 71 70 70 71 70 69 67 67 67 68 69 67
61 61 64 64 64 65 67 67 68 68 65 66 67 66 65 66 66 68 67 67 69 71 71 71 70 70 71 66 66 68 71 71 72 71 71 71 71 67 66 64 64 63 64
62 63 66 66 65 65 66 67 67 67 67 67 67 66 66 67 68 67 65 65 67 69 69 71 71 71 71 66 65 66 69 71 71 71 71 71 70 66 65 65 62 60 61
60 64 66 65 65 66 67 66 65 66 67 66 67 68 68 68 68 68 67 66 68 70 71 71 71 71 71 65 64 64 67 69 70 70 70 71 70 64 62 64 59 57 56
63 64 64 65 64 64 66 64 63 64 65 67 67 67 68 67 67 67 68 69 69 69 69 69 70 67 70 63 62 64 69 69 68 68 67 65 69 61 60 63 59 57 55
60 61 64 63 63 64 63 62 60 62 64 67 66 65 65 65 66 65 65 66 67 68 68 68 68 68 66 67 60 60 67 69 69 67 65 65 61 59 59 60 61 61 56
58 62 63 62 62 62 62 61 63 64 66 66 64 64 64 66 66 63 63 63 64 65 66 67 66 65 65 59 59 59 58 64 68 68 66 64 59 57 58 60 59 56 58
58 59 60 61 61 62 63 62 62 62 63 67 64 63 62 62 61 62 62 62 63 63 64 65 64 62 62 62 57 58 58 59 63 68 64 59 55 55 58 59 58 58 61
56 58 61 62 62 62 62 62 62 62 63 65 65 63 58 55 55 56 58 58 59 60 60 60 60 59 59 59 60 60 61 59 61 61 60 59 59 59 60 60 61 62 62
53 57 59 62 63 62 61 62 62 61 62 62 64 61 56 55 53 49 49 53 53 51 58 58 58 56 56 56 53 55 58 60 57 59 60 60 60 60 61 61 60 60 59
54 54 58 62 63 62 62 63 61 61 60 60 61 62 57 55 56 55 53 48 46 45 44 47 53 53 49 46 45 46 48 50 53 59 59 59 59 59 59 59 58 59 58

GFSMW_sfc_dewp_165.txt.gz
Dewpoint
59 61 61 62 62 62 62 62 64 64 67 66 64 62 63 64 66 67 68 65 67 68 69 70 70 68 68 68 67 70 69 68 66 64 64 62 64 66 67 69 70 71 71
59 60 60 61 62 62 64 64 64 64 66 66 65 64 65 66 66 68 68 68 67 68 69 69 70 69 68 68 68 69 69 69 68 63 61 61 60 65 68 69 69 69 70
58 61 61 60 61 62 63 64 63 64 66 67 67 67 67 67 67 67 67 68 69 69 69 69 69 69 70 69 69 70 68 67 68 68 63 59 59 62 66 66 68 67 67
59 60 61 61 61 62 64 64 64 64 66 67 66 66 64 65 66 65 66 66 68 69 69 70 70 69 68 68 70 70 70 69 67 68 70 65 64 60 60 66 66 67 67
57 59 61 61 64 64 63 64 64 64 65 66 66 66 65 65 66 67 66 66 66 70 70 70 71 69 68 68 70 70 70 70 68 68 68 67 67 66 64 61 64 67 68
57 60 62 63 64 64 66 66 65 65 66 67 68 66 65 66 65 66 67 67 67 70 70 70 70 68 69 69 71 70 70 70 69 70 68 67 66 65 62 62 63 63 68
57 60 61 64 65 64 65 66 66 65 65 67 68 68 67 67 66 66 66 67 67 69 69 70 70 69 70 71 71 70 70 70 69 69 69 69 69 68 66 65 64 64 66
58 60 62 64 64 65 64 65 68 66 66 66 66 69 68 67 67 66 66 66 68 69 70 70 70 69 70 71 71 71 70 70 69 69 70 70 70 70 67 65 65 63 64
58 60 62 64 64 64 65 66 66 68 68 67 67 67 68 68 67 66 64 65 68 70 69 70 71 70 70 71 70 70 70 70 70 70 70 70 70 70 70 67 68 63 61
58 60 62 63 64 64 65 67 66 67 69 69 68 68 68 69 68 68 68 67 68 68 69 70 71 71 71 71 70 70 70 70 70 70 69 70 70 70 69 70 69 67 64
56 60 63 64 63 65 66 66 67 66 67 69 69 69 69 70 69 69 68 69 69 69 69 70 70 70 69 70 70 71 70 70 70 70 70 69 69 70 70 70 70 68 67
59 62 62 63 64 65 67 67 68 67 67 67 67 68 69 70 70 70 69 69 69 69 69 69 68 68 68 67 69 70 71 70 69 69 69 70 72 69 69 69 68 68 69
61 62 62 62 63 64 66 67 65 66 67 66 65 65 66 68 69 70 70 69 69 69 68 67 66 65 66 66 69 70 69 70 69 69 69 69 70 69 69 69 68 68 70
61 61 61 61 62 63 64 65 66 65 66 65 65 65 65 66 68 70 70 69 69 69 68 67 65 63 62 64 68 70 70 70 70 71 71 70 70 69 69 69 69 68 68
60 61 61 62 63 63 64 64 65 65 65 66 66 65 65 65 66 67 70 70 70 69 68 67 67 67 65 64 67 70 70 69 69 71 71 71 71 70 69 70 69 69 67
60 61 63 65 64 64 64 64 64 64 65 65 65 67 66 65 64 65 67 69 70 71 70 68 67 67 67 66 66 69 71 71 70 69 70 71 70 69 67 67 68 69 68
60 61 62 64 64 65 65 64 65 65 65 65 65 66 66 64 64 65 66 67 67 69 70 71 70 69 69 66 66 67 69 70 71 70 70 70 71 68 67 66 66 65 65
59 61 62 63 64 64 66 66 66 66 65 64 65 66 66 65 65 66 66 65 65 65 68 69 69 70 70 65 65 66 69 70 70 71 71 70 69 67 66 64 63 63 62
62 64 65 64 64 64 65 65 65 65 65 66 66 67 66 66 66 67 68 66 65 65 67 68 69 70 70 64 63 65 68 69 70 70 70 70 70 65 63 64 61 59 59
63 65 65 65 65 64 65 64 63 64 64 65 66 67 67 66 66 67 67 68 68 67 69 68 69 67 70 63 61 63 69 69 69 69 69 65 69 62 61 64 61 59 58
64 65 65 64 64 64 63 61 60 61 64 66 65 64 64 64 65 64 63 64 66 68 67 68 68 68 65 66 61 60 66 69 68 68 68 69 62 59 59 61 63 62 60
63 64 63 62 62 62 61 59 62 63 65 64 63 62 62 63 64 62 63 63 63 64 65 67 67 66 65 60 59 58 58 63 68 68 69 67 59 57 58 60 60 58 58
62 63 62 61 61 61 61 61 61 62 64 65 64 63 61 59 60 59 60 62 62 62 64 65 65 64 63 62 58 57 58 59 60 65 66 61 56 57 58 60 60 58 61
61 61 61 60 60 61 62 61 61 61 61 63 63 61 57 54 55 56 57 58 58 60 60 61 61 61 60 60 60 61 61 60 61 62 63 62 60 59 62 62 60 62 62
59 60 60 60 60 61 61 61 61 61 60 61 61 57 56 55 53 50 50 54 51 50 56 58 58 57 56 56 50 52 59 61 58 58 60 60 61 61 61 62 62 62 60
58 60 61 61 61 61 61 61 60 60 60 59 61 57 54 56 55 54 52 48 46 45 44 45 51 54 47 46 46 45 46 49 52 59 59 59 59 59 59 59 59 59 58

GFSMW_sfc_dewp_168.txt.gz
Dewpoint
59 60 61 60 59 58 59 59 59 61 66 67 66 66 66 66 68 69 70 69 68 67 69 70 72 70 71 70 70 71 71 70 69 67 67 65 66 68 69 70 71 71 71
59 60 61 62 61 61 61 61 61 64 66 67 66 65 66 67 68 68 69 69 68 68 71 71 71 71 70 70 71 71 70 70 70 67 64 63 66 66 68 71 70 70 71
57 59 60 61 62 63 64 63 64 64 66 68 67 68 68 68 69 69 69 69 69 69 70 71 71 71 72 71 71 71 71 70 70 70 67 64 64 64 69 68 69 69 70
58 59 59 60 61 63 64 65 65 65 65 68 67 67 66 66 68 67 68 68 70 70 71 71 71 71 70 71 71 72 71 72 70 71 71 68 68 66 66 69 69 70 68
57 59 60 60 61 63 63 65 66 65 66 67 67 67 66 67 67 68 68 67 68 70 71 71 71 71 70 71 71 72 73 72 71 69 70 70 69 68 68 64 67 70 69
58 59 61 63 63 64 65 65 65 65 66 67 67 67 66 66 67 67 68 68 69 68 71 71 72 71 71 71 71 73 73 72 71 72 70 71 70 67 65 64 65 65 69
58 59 61 62 64 64 64 66 65 65 66 66 67 67 67 67 67 67 67 68 69 69 70 71 72 71 71 72 72 72 72 72 72 72 71 71 71 70 67 66 66 67 69
58 59 61 63 63 65 65 66 66 66 65 66 67 68 68 67 67 67 68 68 69 70 71 71 72 72 71 72 73 72 73 73 73 71 72 71 71 73 71 68 67 67 68
58 60 61 63 64 64 65 66 67 66 66 65 66 68 69 68 68 68 67 67 68 70 71 71 72 72 71 72 73 73 72 72 72 72 72 72 72 73 72 71 71 67 66
59 60 61 62 64 64 65 66 68 67 67 68 66 66 67 69 68 68 68 67 68 69 71 71 71 72 72 72 73 72 72 72 72 72 72 72 73 72 71 72 70 70 68
59 60 61 63 64 65 66 66 67 67 68 69 69 69 68 69 69 69 69 69 69 69 70 70 71 71 72 72 72 72 72 72 72 72 72 72 72 72 73 73 72 71 69
58 60 62 63 64 64 66 66 67 66 67 68 70 70 70 70 70 69 70 70 69 70 70 70 70 71 71 71 71 71 72 72 71 71 71 71 72 73 73 72 72 71 72
60 61 63 63 64 65 66 66 67 67 68 68 68 68 70 70 70 70 70 70 70 70 70 70 70 70 70 70 70 71 71 71 71 71 71 71 71 72 71 72 71 72 71
61 61 61 62 62 64 65 66 67 67 67 67 66 66 67 68 69 70 71 70 70 70 70 69 69 69 68 68 68 70 71 71 71 72 72 72 72 72 71 71 72 72 71
60 61 61 61 62 62 64 65 66 66 66 65 66 66 66 67 67 68 70 71 71 70 70 70 69 68 67 65 66 68 70 71 71 72 72 72 72 70 70 72 72 71 71
60 61 61 62 62 63 63 64 64 65 66 66 66 66 66 67 66 67 67 68 70 71 71 70 69 69 67 65 64 67 68 70 71 71 72 73 71 71 67 67 67 70 71
61 61 62 64 64 64 65 64 64 65 65 65 65 66 67 67 67 66 66 67 68 70 71 71 70 69 69 64 64 66 69 70 71 72 72 72 72 71 71 67 67 67 66
62 62 63 64 65 66 66 66 66 66 66 65 66 66 66 66 66 66 66 67 67 68 69 70 71 71 71 65 64 65 70 71 71 72 72 72 72 72 71 69 68 68 68
61 62 63 64 64 66 67 67 66 66 66 66 66 67 67 67 66 66 67 68 67 67 67 68 69 70 71 64 63 64 70 70 71 72 72 72 72 68 64 69 67 66 65
61 63 64 64 64 64 65 65 65 65 66 66 67 68 68 68 68 68 68 69 68 68 68 68 70 67 70 63 61 63 68 69 70 71 71 66 69 64 61 69 68 66 65
64 65 64 64 64 65 64 63 63 64 66 67 66 66 65 66 65 65 65 65 66 68 69 69 69 70 69 68 60 59 67 69 70 70 70 70 62 60 58 61 68 66 66
64 65 64 64 64 64 63 61 62 65 66 66 65 64 63 63 63 63 64 64 64 64 66 68 68 68 66 60 57 58 58 62 64 67 69 70 61 57 57 59 63 59 62
64 64 63 62 62 62 62 62 64 65 66 65 64 63 61 59 59 59 60 62 63 63 64 65 67 66 64 63 57 57 57 58 61 63 63 59 56 55 57 57 59 59 63
63 63 62 62 61 61 62 62 63 63 64 64 64 62 58 57 57 57 57 58 58 61 61 61 62 62 61 61 60 60 61 60 61 61 63 61 59 58 61 61 59 63 64
63 62 61 61 61 61 62 62 62 62 62 63 62 58 58 57 54 52 51 54 53 51 57 58 58 57 57 56 48 49 56 60 59 59 61 61 61 61 61 62 63 62 62
61 61 61 61 61 62 61 62 62 62 62 62 61 57 57 56 55 55 54 48 47 46 45 45 52 55 47 45 44 44 45 48 51 59 59 59 59 59 59 59 59 60 60

GFSMW_sfc_dewp_171.txt.gz
Dewpoint
59 61 60 60 61 60 61 63 63 65 65 66 67 68 67 68 69 70 71 71 70 69 71 70 74 73 72 73 73 72 71 70 71 69 67 66 67 70 70 70 69 70 70
58 60 61 60 60 61 61 63 64 65 66 67 69 69 69 68 69 69 71 71 70 69 71 74 73 74 71 73 73 73 70 70 71 69 67 62 64 66 67 70 70 70 70
57 59 61 61 61 61 62 62 64 65 66 67 69 70 69 70 68 69 69 70 71 69 71 72 73 74 73 70 73 73 73 69 71 72 67 62 61 65 68 68 69 70 70
58 58 60 61 61 63 64 64 65 66 66 68 69 70 66 65 66 68 70 70 71 71 72 73 73 74 72 73 71 72 73 75 70 72 70 71 70 64 63 68 69 70 67
56 57 59 60 61 63 64 65 67 68 68 69 71 69 68 68 68 69 71 72 72 72 71 73 74 74 72 74 74 72 75 77 75 75 70 72 71 71 68 65 66 69 70
56 59 60 62 62 62 64 65 68 69 70 70 70 70 70 70 68 68 68 68 68 68 72 72 74 74 73 74 73 73 74 76 75 76 73 71 69 67 66 65 67 65 69
57 58 60 61 62 62 63 65 67 68 69 69 69 70 70 71 70 70 68 71 68 68 70 73 74 72 74 74 74 74 75 75 76 75 70 73 70 71 69 67 66 68 69
58 58 60 61 62 64 64 65 67 68 68 69 70 70 71 68 68 69 68 68 68 69 72 72 73 74 74 73 75 72 72 75 74 74 74 76 71 72 71 68 70 67 67
57 59 61 62 63 63 65 66 67 69 68 67 69 70 71 70 69 71 70 68 71 70 72 73 73 73 74 74 75 72 74 75 74 75 74 77 71 72 72 72 70 73 65
58 59 60 62 64 63 64 67 67 67 68 68 68 68 69 71 70 71 71 71 71 71 72 72 72 73 74 74 75 74 73 75 73 75 75 76 73 72 71 71 71 70 74
58 59 61 62 64 65 65 66 68 69 68 68 68 68 68 69 70 70 71 71 71 72 72 72 71 73 73 74 75 74 73 73 74 75 74 74 75 73 74 75 77 75 70
59 60 61 63 65 66 66 67 68 68 68 70 70 69 69 70 68 70 70 71 71 72 72 72 72 72 73 73 75 74 71 73 72 72 73 72 70 75 75 71 75 73 74
60 61 62 64 65 66 67 67 69 68 69 70 70 70 70 70 70 71 71 72 72 72 71 72 73 73 72 72 73 73 73 73 72 72 72 73 73 73 71 75 76 76 73
60 61 63 64 65 66 67 68 68 70 69 69 69 69 69 70 70 70 72 72 73 72 72 72 72 72 72 72 71 72 72 72 71 72 73 73 74 74 74 75 75 75 75
60 61 63 64 65 66 67 68 69 70 70 70 69 69 70 70 70 71 72 72 72 72 73 72 72 72 71 68 71 71 70 71 70 72 73 73 73 71 71 72 75 75 74
59 61 63 64 65 65 66 67 68 69 69 69 69 69 68 69 69 69 70 70 72 73 73 73 72 72 69 65 65 69 70 71 71 70 70 73 72 71 68 68 68 71 75
61 62 63 64 65 65 66 66 68 68 68 69 68 69 69 69 69 70 70 69 70 71 72 73 73 73 73 65 64 66 69 70 71 72 71 70 69 71 73 69 66 66 66
62 63 63 65 67 67 67 68 68 68 68 68 68 68 69 69 69 69 69 68 69 69 70 72 73 73 72 65 63 65 71 71 72 72 73 73 73 73 73 73 72 73 73
62 63 64 67 68 68 69 69 69 69 69 69 70 70 70 69 69 69 70 69 69 69 69 70 72 73 73 63 63 66 71 71 72 73 73 73 73 69 65 73 72 72 72
62 64 65 66 67 68 68 68 68 68 68 69 70 71 70 69 68 69 69 69 70 69 70 70 71 68 71 64 61 64 70 71 70 72 73 66 70 65 62 71 73 71 72
62 64 65 65 67 67 67 67 68 68 69 70 70 70 69 69 68 69 68 68 68 69 70 70 71 71 70 70 59 59 70 71 70 70 70 70 62 59 58 59 71 71 71
62 64 64 65 66 67 67 67 67 68 70 70 69 69 68 66 66 66 65 65 66 66 68 69 69 70 68 60 59 57 58 61 68 69 69 70 58 56 55 58 60 60 61
63 64 64 66 67 68 67 67 68 69 69 69 68 67 65 64 64 65 64 64 64 64 64 65 67 66 65 64 58 57 57 58 62 66 64 58 56 55 58 56 57 58 63
64 64 65 65 66 68 67 66 68 68 68 67 67 66 64 62 62 59 59 59 60 62 63 63 63 62 62 61 59 60 61 59 62 62 64 62 59 57 61 62 62 63 63
65 66 66 64 65 66 66 65 66 66 65 66 66 64 61 61 59 57 56 57 55 54 59 59 60 59 59 57 49 51 58 59 58 56 64 64 64 64 64 64 65 63 63
66 66 66 65 64 64 64 65 65 65 64 65 63 62 60 59 59 59 57 48 48 46 45 45 54 55 49 46 44 44 45 48 51 61 61 60 60 59 60 60 61 61 61

GFSMW_sfc_dewp_174.txt.gz
Dewpoint
57 59 59 59 58 62 64 65 66 66 66 65 67 70 66 66 67 67 70 72 70 69 71 69 71 71 70 71 71 69 68 63 66 65 62 65 68 67 67 65 65 68 68
56 59 59 59 59 59 62 65 66 68 67 65 67 71 72 66 66 67 70 70 71 70 71 73 71 72 68 73 72 71 65 65 67 66 64 59 64 64 64 66 66 66 67
54 58 59 59 60 61 61 63 66 67 67 69 70 70 69 69 68 68 67 69 70 70 72 73 72 72 70 67 72 70 70 64 67 72 66 66 60 63 65 67 67 69 68
56 56 58 59 60 61 63 63 65 66 66 69 68 70 65 64 64 65 66 68 71 70 70 72 73 73 69 71 70 68 71 71 65 68 69 70 69 60 62 65 66 68 66
53 55 57 59 59 62 62 64 66 68 67 68 69 68 69 65 65 65 71 71 73 72 71 72 73 73 70 72 72 72 72 70 68 67 68 70 67 69 61 58 66 67 68
53 57 57 59 60 61 62 64 68 69 69 69 70 71 69 68 65 67 66 66 66 69 72 71 73 73 72 73 71 74 73 72 71 69 68 65 64 63 61 61 64 62 67
53 56 57 59 60 61 62 63 68 70 70 70 69 70 71 71 70 69 65 67 64 65 68 73 73 70 73 73 73 74 72 73 71 72 66 68 66 66 64 62 61 62 64
53 55 58 59 61 62 63 64 66 69 70 70 71 71 71 67 67 68 65 66 63 64 68 70 72 72 72 73 73 71 70 71 71 72 72 67 66 68 66 65 64 60 61
53 55 58 60 61 62 64 65 66 69 69 68 70 71 71 71 68 69 69 66 70 66 71 71 72 72 73 74 74 70 71 72 72 71 72 71 66 67 66 67 66 64 60
55 56 57 60 61 61 63 65 66 68 68 68 69 69 70 71 70 70 71 70 69 71 72 72 71 72 73 74 75 71 72 73 70 69 72 72 68 68 67 67 74 66 67
56 57 58 60 61 62 62 64 66 67 68 67 68 68 68 69 71 70 70 71 71 71 72 73 71 71 71 71 73 74 73 73 72 71 71 72 73 67 68 70 70 70 68
57 58 60 61 62 64 63 64 67 67 68 68 69 68 68 69 68 70 70 71 71 71 72 72 72 71 71 71 72 71 70 72 72 72 71 70 67 73 72 68 73 73 71
58 59 60 62 64 65 67 66 68 68 68 69 69 68 68 68 68 68 70 71 72 72 71 71 72 72 71 72 71 72 71 71 71 72 72 70 71 72 70 71 69 67 68
59 60 61 63 65 67 68 69 69 70 69 68 68 69 69 69 69 70 71 71 73 73 73 72 72 72 72 71 71 72 73 71 70 71 72 72 71 72 73 71 73 71 70
57 60 63 64 66 68 69 69 69 70 70 70 70 70 70 71 70 71 71 71 72 72 73 73 72 72 70 67 70 70 71 73 71 72 71 72 72 70 71 69 74 73 70
57 60 63 65 66 67 68 68 69 70 70 70 70 71 72 72 72 72 72 73 73 73 73 72 72 71 68 65 66 68 69 71 71 71 71 72 71 71 69 68 68 71 73
58 60 63 65 66 67 68 68 70 70 70 71 71 71 71 71 71 71 71 71 72 72 72 72 72 71 72 65 65 67 68 69 71 71 71 69 65 70 71 69 67 67 67
60 62 62 64 66 66 67 68 69 70 71 71 71 71 71 71 71 71 71 71 71 70 70 71 74 75 73 65 64 66 70 69 70 71 71 72 72 71 71 71 71 72 72
61 62 61 64 66 67 68 69 69 69 70 69 70 70 70 70 71 71 71 71 71 70 70 70 73 74 74 63 63 67 71 70 71 73 73 73 73 68 64 73 71 71 70
60 61 62 65 63 66 67 67 67 68 69 69 70 70 71 70 70 70 70 71 71 70 69 70 70 68 72 65 62 66 70 69 69 72 75 65 70 63 61 74 73 72 72
61 62 63 60 63 65 64 65 67 67 68 70 71 71 71 71 70 70 70 69 69 70 70 70 71 73 71 69 60 59 70 69 70 70 71 73 61 59 58 58 71 71 71
60 62 62 62 66 65 64 66 66 68 70 70 70 70 70 68 68 69 69 68 68 67 69 70 70 71 67 60 59 58 59 63 68 68 68 70 57 56 56 60 62 59 60
57 62 60 64 66 66 65 65 68 68 68 69 68 68 68 67 68 68 67 64 66 64 65 66 67 66 66 65 59 58 57 58 63 66 64 58 56 55 58 57 57 57 67
59 63 63 65 66 66 65 65 67 67 67 66 66 66 65 64 66 63 62 61 63 62 63 63 64 64 64 64 63 63 63 60 61 62 63 62 60 58 60 62 64 65 66
61 64 65 66 66 65 63 64 66 66 65 65 64 64 62 63 62 60 59 60 59 56 60 62 61 61 61 59 52 53 61 62 59 60 64 64 63 63 64 64 64 65 66
65 68 69 67 64 62 63 64 64 64 64 63 63 61 60 61 61 60 58 49 48 47 46 47 54 58 50 47 46 45 47 49 50 60 60 60 60 61 61 60 60 61 61

GFSMW_sfc_dewp_180.txt.gz
Dewpoint
56 57 57 60 64 65 67 69 69 70 69 70 70 71 69 69 70 71 73 75 75 74 76 74 74 76 76 76 73 74 72 71 66 68 67 67 67 69 71 71 70 70 70
55 57 57 57 63 65 66 68 70 71 70 69 71 72 69 67 72 72 71 74 74 74 73 76 75 75 72 75 75 75 73 70 69 67 68 61 64 67 66 70 71 69 69
54 56 56 57 60 65 66 68 70 71 69 69 73 72 72 74 71 71 72 71 74 72 75 76 76 76 75 74 75 76 73 70 70 70 67 61 60 65 70 70 71 71 71
55 56 55 57 60 64 66 70 69 70 70 73 72 73 66 69 69 72 73 72 74 73 73 76 76 76 77 76 75 73 74 73 70 70 67 63 66 66 63 71 69 69 70
52 55 55 57 58 63 64 68 70 71 71 73 74 71 70 69 70 73 72 73 76 75 72 75 76 77 76 76 75 75 75 74 73 71 69 69 68 69 66 66 66 66 66
52 57 59 58 59 60 62 66 70 71 72 72 72 73 73 73 71 69 68 62 71 72 75 74 76 77 77 77 75 76 76 76 75 74 72 69 68 67 67 66 65 67 69
54 57 58 57 59 61 61 64 69 70 71 70 71 73 74 71 70 70 69 65 68 69 72 75 76 76 77 77 77 76 76 76 75 76 74 73 71 70 68 66 67 66 67
54 54 57 59 60 62 63 63 68 69 70 71 71 72 73 73 71 73 72 72 73 72 71 74 75 75 76 76 76 75 74 73 74 74 75 74 72 71 70 68 67 66 64
52 54 58 60 61 62 64 65 68 70 70 69 71 72 73 73 71 72 73 71 76 69 71 71 73 75 76 76 77 73 75 75 75 75 76 75 72 72 71 71 73 68 66
54 53 57 59 61 61 62 65 69 70 70 69 70 70 72 73 73 75 74 73 73 68 75 72 73 73 76 76 77 75 74 74 75 73 73 75 74 74 71 70 73 73 67
51 53 57 58 60 59 62 63 68 69 70 70 70 70 71 72 73 72 74 73 75 76 76 75 74 75 76 76 77 76 76 74 73 75 76 74 75 74 73 74 72 72 72
50 55 57 60 61 62 62 64 66 68 70 70 71 71 72 71 71 72 72 75 74 75 76 77 77 76 76 76 75 74 72 75 74 75 74 75 70 75 74 74 73 74 73
55 56 55 61 63 64 66 65 68 67 69 70 70 71 70 71 70 71 72 73 75 75 73 75 75 75 74 75 75 75 75 74 74 74 75 74 75 75 73 74 75 74 74
58 57 59 62 64 67 70 69 68 70 69 69 69 70 70 69 69 71 71 72 74 74 73 74 75 74 74 74 74 73 74 74 73 75 75 75 74 75 75 73 74 72 73
56 59 61 65 68 69 71 71 70 72 71 72 71 71 71 72 73 73 73 72 74 74 75 75 74 75 74 71 73 74 73 74 74 73 75 73 74 72 73 72 74 74 73
57 58 62 65 67 68 71 71 72 72 73 75 73 74 76 75 76 76 76 77 76 76 75 75 74 74 72 67 67 71 72 73 73 73 74 74 73 72 69 68 68 72 73
58 59 61 65 67 69 71 71 72 74 73 74 74 74 75 75 76 75 74 74 72 74 74 73 73 74 75 68 67 67 69 72 73 74 74 73 68 70 73 69 67 68 67
58 61 60 64 68 69 70 72 73 74 74 74 74 74 75 74 75 75 75 75 75 73 75 73 74 74 73 67 65 66 71 71 72 73 73 73 72 73 72 73 73 74 74
59 60 61 66 69 69 71 72 72 73 73 73 74 74 75 74 74 73 74 74 74 74 73 73 74 73 73 66 64 66 72 73 72 72 73 73 73 69 65 72 72 73 73
62 59 63 67 68 69 71 71 71 72 72 73 73 74 74 73 73 73 73 72 74 74 73 72 73 71 73 67 63 64 72 72 72 73 73 66 68 62 61 73 73 71 71
60 62 65 65 66 68 69 71 71 71 72 72 73 73 74 73 73 73 73 73 73 73 73 72 73 73 70 66 61 61 68 72 73 73 72 69 60 57 59 59 70 70 67
65 63 65 65 67 67 69 70 70 71 72 73 73 73 73 70 71 73 73 72 70 70 71 71 72 69 68 61 59 60 60 63 70 71 73 65 58 58 58 59 62 60 61
60 61 64 66 66 68 68 68 71 72 72 72 72 73 71 72 72 71 71 68 70 68 68 70 70 67 67 66 60 60 60 59 65 70 62 59 57 56 59 57 58 57 66
61 62 68 63 65 69 69 71 73 73 73 71 71 70 70 69 70 66 66 65 65 67 67 67 68 67 67 68 67 64 63 61 62 63 66 63 61 59 61 63 65 65 64
64 64 64 64 66 68 70 71 72 71 69 69 69 68 66 66 67 61 59 60 57 55 63 65 66 65 66 60 53 54 59 60 57 61 68 67 66 64 63 62 61 61 60
66 68 69 67 67 67 68 69 70 70 68 67 66 64 63 62 64 63 59 50 50 49 48 48 53 58 52 49 48 48 48 48 49 63 65 64 64 62 61 59 59 59 58

GFSMW_sfc_dewp_183.txt.gz
Dewpoint
55 57 62 63 64 66 66 67 67 68 68 68 67 68 68 68 70 71 71 72 71 70 70 72 71 71 71 71 69 68 68 69 68 65 64 64 68 68 68 70 72 71 71
55 57 62 63 64 65 65 67 68 68 67 69 68 68 66 66 68 70 70 69 70 69 70 70 73 69 61 66 69 69 69 68 68 65 62 59 62 65 69 71 71 71 72
55 57 62 63 63 65 66 67 68 68 68 68 70 69 68 68 69 69 69 70 70 68 70 71 73 67 61 69 70 70 68 69 65 69 62 58 57 63 68 71 69 71 71
56 56 58 62 63 64 64 66 69 68 67 67 69 68 62 65 66 67 68 68 70 68 69 71 71 67 72 71 71 71 70 69 68 70 68 65 63 61 63 68 68 69 69
54 56 56 62 63 63 63 67 68 68 67 67 69 69 66 66 68 70 68 70 71 70 69 70 71 70 71 72 70 70 69 71 70 70 65 67 66 68 65 64 65 65 66
54 55 56 60 63 63 65 67 67 67 68 70 69 69 67 67 68 67 65 62 62 69 70 70 71 71 72 71 70 71 69 71 71 71 69 67 66 66 65 65 64 66 67
54 55 55 58 61 62 66 66 67 67 68 69 69 70 70 69 67 68 63 61 61 66 69 71 72 72 72 72 71 71 71 70 70 71 71 70 68 68 68 66 66 65 67
53 55 55 57 60 62 64 66 67 67 67 70 68 70 70 70 66 69 68 67 67 68 69 73 73 71 72 71 72 71 71 70 71 70 70 72 71 71 69 68 67 64 66
55 56 56 57 58 59 62 65 66 67 67 69 68 70 70 70 70 69 70 68 70 69 68 68 68 71 72 72 73 70 70 72 71 71 71 71 70 69 69 70 69 66 64
55 56 57 57 59 59 60 64 66 66 67 66 69 68 70 70 70 71 69 70 70 68 69 70 69 68 70 72 72 71 71 70 70 71 71 71 71 71 70 69 70 71 66
52 55 57 58 59 60 61 64 66 66 66 66 66 67 69 71 71 71 71 71 71 67 70 70 69 65 69 71 72 71 71 71 69 70 71 70 70 71 71 71 69 67 68
53 53 57 58 59 60 61 65 66 67 67 67 67 67 68 69 70 70 70 71 70 71 71 71 71 71 72 72 72 71 70 71 71 69 71 71 71 70 71 71 70 70 70
55 55 57 58 59 60 61 63 66 67 68 68 68 68 68 69 69 70 70 70 72 71 71 71 71 72 71 72 72 71 72 72 71 72 72 72 72 70 71 70 70 70 71
55 55 56 58 59 60 61 62 67 67 68 68 68 68 68 69 68 70 70 70 71 71 71 71 72 72 72 72 72 71 71 72 72 72 73 73 72 71 71 70 70 70 69
54 56 57 59 60 66 63 64 64 67 68 68 68 68 70 68 69 69 71 71 71 72 72 72 71 72 72 71 72 72 72 72 71 72 72 72 73 72 72 71 70 70 70
50 55 57 63 64 66 67 66 65 67 68 68 67 70 71 71 71 72 72 72 72 73 71 72 72 72 71 68 68 70 71 71 71 71 72 72 71 71 69 68 69 71 69
53 56 56 61 64 66 67 69 67 69 68 72 71 71 71 71 71 72 71 70 70 70 70 71 71 71 71 68 67 68 68 69 71 71 71 71 70 69 70 69 67 67 67
55 58 59 56 66 68 69 70 71 70 70 71 71 71 71 71 71 71 70 70 70 70 70 70 71 71 71 68 66 67 68 69 70 70 71 70 70 70 71 70 70 70 70
58 61 62 62 62 68 69 70 70 71 71 71 71 71 71 71 71 70 71 71 70 70 70 70 70 70 71 67 64 66 68 69 70 70 70 70 70 68 65 68 69 69 70
61 59 61 65 64 66 70 70 70 71 71 71 71 71 71 71 71 70 70 70 70 70 71 70 70 69 70 62 62 64 67 68 69 70 69 63 65 61 61 68 68 68 68
59 60 62 62 62 65 69 70 70 70 71 72 72 72 71 71 70 70 70 69 70 69 68 68 69 69 66 63 60 61 66 69 69 68 68 64 61 59 58 60 66 66 63
62 64 61 60 60 61 63 69 70 71 72 72 71 71 71 71 70 68 69 68 67 66 65 66 67 66 65 61 58 60 60 62 66 67 67 63 59 58 57 59 60 57 59
62 62 61 59 58 63 64 69 70 71 71 70 70 69 69 70 70 69 68 66 65 65 65 66 67 66 64 64 60 60 60 59 62 65 62 60 56 55 58 58 57 59 64
63 61 61 59 59 61 69 68 70 70 69 70 69 68 68 68 68 66 66 63 62 65 66 65 65 65 64 65 64 61 61 60 61 61 62 61 61 60 60 62 61 61 60
60 60 59 60 58 60 65 70 70 70 69 68 67 67 65 65 58 55 56 57 53 55 62 61 63 63 64 56 51 53 58 57 54 55 63 62 61 60 59 58 58 58 58
63 58 58 58 62 61 62 69 70 68 67 66 66 64 63 64 61 57 55 49 49 48 48 48 56 53 51 48 47 48 48 48 50 60 61 60 59 57 56 57 57 57 57